TimePDT,TemperatureF,Dew PointF,Humidity,Sea Level PressureIn,VisibilityMPH,Wind Direction,Wind SpeedMPH,Gust SpeedMPH,PrecipitationIn,Events,Conditions,WindDirDegrees,DateUTC
12:54 AM,51.1,46.0,83,30.01,10.0,South,6.9,-,N/A,,Clear,190,2013-07-11 07:54:00
1:54 AM,50.0,45.0,83,30.02,10.0,SSW,5.8,-,N/A,,Clear,210,2013-07-11 08:54:00
2:54 AM,48.9,45.0,86,30.02,10.0,Calm,Calm,-,N/A,,Clear,0,2013-07-11 09:54:00
3:54 AM,50.0,45.0,83,30.04,10.0,Calm,Calm,-,N/A,,Clear,0,2013-07-11 10:54:00
4:54 AM,45.0,43.0,93,30.06,10.0,Calm,Calm,-,N/A,,Clear,0,2013-07-11 11:54:00
5:14 AM,46.9,44.1,90,30.06,10.0,Calm,Calm,-,N/A,,Mostly Cloudy,0,2013-07-11 12:14:00
5:54 AM,48.9,46.0,90,30.06,10.0,Calm,Calm,-,N/A,,Overcast,0,2013-07-11 12:54:00
6:54 AM,52.0,46.9,83,30.08,10.0,Calm,Calm,-,N/A,,Overcast,0,2013-07-11 13:54:00
7:54 AM,54.0,48.0,80,30.09,10.0,Calm,Calm,-,N/A,,Overcast,0,2013-07-11 14:54:00
8:54 AM,55.9,46.9,72,30.09,10.0,Variable,3.5,-,N/A,,Overcast,0,2013-07-11 15:54:00
9:54 AM,61.0,48.9,64,30.09,10.0,Variable,3.5,-,N/A,,Mostly Cloudy,0,2013-07-11 16:54:00
10:54 AM,62.1,48.0,60,30.09,10.0,Calm,Calm,-,N/A,,Mostly Cloudy,0,2013-07-11 17:54:00
11:54 AM,62.1,48.9,62,30.09,10.0,North,6.9,-,N/A,,Mostly Cloudy,10,2013-07-11 18:54:00
12:54 PM,64.9,48.9,56,30.08,10.0,NNE,8.1,-,N/A,,Scattered Clouds,20,2013-07-11 19:54:00
1:54 PM,66.9,48.9,52,30.07,10.0,Variable,5.8,-,N/A,,Scattered Clouds,0,2013-07-11 20:54:00
2:54 PM,69.1,48.0,47,30.06,10.0,NE,5.8,-,N/A,,Scattered Clouds,50,2013-07-11 21:54:00
3:54 PM,71.1,48.0,44,30.05,10.0,Variable,4.6,-,N/A,,Mostly Cloudy,0,2013-07-11 22:54:00
4:54 PM,71.1,46.9,42,30.03,10.0,Variable,4.6,-,N/A,,Mostly Cloudy,0,2013-07-11 23:54:00
5:54 PM,73.0,48.0,41,30.02,10.0,Variable,4.6,-,N/A,,Mostly Cloudy,0,2013-07-12 00:54:00
6:54 PM,71.1,48.9,45,30.01,10.0,NNW,9.2,-,N/A,,Scattered Clouds,330,2013-07-12 01:54:00
7:54 PM,66.9,48.0,51,30.01,10.0,NW,9.2,-,N/A,,Mostly Cloudy,320,2013-07-12 02:54:00
8:54 PM,63.0,48.0,58,30.01,10.0,NNW,5.8,-,N/A,,Mostly Cloudy,340,2013-07-12 03:54:00
9:54 PM,60.1,48.0,64,30.02,10.0,North,5.8,-,N/A,,Clear,350,2013-07-12 04:54:00
10:54 PM,55.9,46.9,72,30.03,10.0,Calm,Calm,-,N/A,,Clear,0,2013-07-12 05:54:00
11:54 PM,54.0,48.0,80,30.03,10.0,South,3.5,-,N/A,,Clear,180,2013-07-12 06:54:00